[[{"header":{"parameterUnit":"m.s-1","parameterCategory":1,"la1":30.2991,"la2":30.254,"lo1":-89.0895,"lo2":-89.0444,"dy":0.0017,"dx":0.0017,"nx":28,"ny":28,"refTime":"2024-11-28T09:00:00:Z","depth":0,"parameterNumber":2,"parameterNumberName":"U-component_of_WINDS"},"data":[0,0,0,0,0,0,0,0,0,0,0,0,0,0,0,0,0,0,0,0,0,0,0,0,0,0,0,0,0,0,0,0,0,0,0,0,0,0,0,0,0,0,0,0,0,0,0,0,0,0,0,0,0,0,0,0,0,0,-1.4899,-1.4899,0,-1.4931,-1.4932,-1.4932,-1.4904,-1.4903,-1.4902,-1.4901,-1.4936,-1.4938,-1.494,0,0,0,0,0,0,0,0,0,0,0,0,0,-1.4813,-1.4815,-1.4899,-1.4899,-1.49,-1.4931,-1.4932,-1.4932,-1.4904,-1.4903,-1.4902,-1.49,-1.4935,-1.4937,-1.494,0,0,0,0,0,0,0,0,0,0,0,0,0,-1.4848,-1.4815,-1.4899,-1.4889,-1.4889,-1.4931,-1.4932,-1.4932,-1.4905,-1.4903,-1.4901,-1.49,-1.4934,-1.4937,-1.494,-1.4994,0,0,-1.4949,-1.4951,0,0,0,0,0,0,0,0,-1.4847,-1.4852,-1.489,-1.489,-1.489,-1.4912,-1.4914,-1.4953,-1.4905,-1.4899,-1.4901,-1.4899,-1.4929,-1.4933,-1.4943,-1.4995,-1.4997,-1.495,-1.4952,-1.4953,-1.4954,0,0,0,0,0,0,0,-1.4844,-1.485,-1.4912,-1.4891,-1.4891,-1.4884,-1.4887,-1.4922,-1.4924,-1.4899,-1.4897,-1.4901,-1.4929,-1.494,-1.4943,-1.4997,-1.495,-1.4952,-1.4954,-1.4955,-1.5096,-1.5098,0,0,0,0,0,0,-1.4842,-1.4848,-1.4911,-1.4913,-1.4863,-1.4887,-1.489,-1.4907,-1.4923,-1.4924,-1.4903,-1.49,-1.4935,-1.494,-1.4944,-1.5009,-1.4953,-1.4956,-1.4957,-1.5094,-1.5096,-1.5098,0,0,0,0,0,0,-1.4841,-1.4848,-1.4909,-1.488,-1.4887,-1.489,-1.4909,-1.4908,-1.4919,-1.4926,-1.4926,-1.4914,-1.4934,-1.494,-1.4982,-1.5009,-1.4957,-1.496,-1.5092,-1.5095,-1.5097,-1.5137,0,0,0,0,0,0,-1.4838,-1.4848,-1.4868,-1.4881,-1.4889,-1.4946,-1.491,-1.491,-1.4924,-1.4921,-1.4936,-1.4937,-1.4933,-1.4977,-1.4985,-1.5013,-1.4962,-1.5089,-1.5093,-1.5096,-1.5133,-1.5141,-1.5148,0,0,0,0,0,-1.4835,-1.4878,-1.4869,-1.4877,-1.4914,-1.4948,-1.4952,-1.4947,-1.4927,-1.4947,-1.4951,-1.4936,-1.5005,-1.4982,-1.499,-1.5019,-1.5088,-1.5092,-1.5096,-1.513,-1.514,-1.5147,0,0,0,0,0,0,-1.487,-1.488,-1.487,-1.4918,-1.4932,-1.4943,-1.4969,-1.4957,-1.4978,-1.4974,-1.4966,-1.497,-1.5014,-1.502,-1.4994,-1.5072,-1.5043,-1.5049,-1.5066,-1.5075,-1.5082,-1.508,-1.4965,0,0,0,0,0,-1.4883,-1.4909,-1.4916,-1.4958,-1.4965,-1.4966,-1.498,-1.4975,-1.4989,-1.4995,-1.5002,-1.5017,-1.5042,-1.5059,-1.5082,-1.5134,-1.5137,-1.5158,-1.5165,-1.5171,-1.5176,-1.5205,-1.5214,-1.5113,-1.5113,-1.5112,0,0,-1.491,-1.4919,-1.4936,-1.4965,-1.4975,-1.5003,-1.4971,-1.5001,-1.5022,-1.5,-1.504,-1.5045,-1.5061,-1.5108,-1.513,-1.5115,-1.5205,-1.5176,-1.5181,-1.5183,-1.521,-1.522,-1.5228,-1.5115,-1.5115,-1.5114,0,0,-1.4974,-1.4983,-1.5019,-1.503,-1.5046,-1.5045,-1.5054,-1.5066,-1.5069,-1.5109,-1.5093,-1.5117,-1.516,-1.5172,-1.5184,-1.5252,-1.5239,-1.526,-1.5297,-1.5325,-1.5333,-1.534,-1.5365,-1.5373,-1.5265,-1.5265,-1.5265,0,-1.5007,-1.5047,-1.5039,-1.5071,-1.5084,-1.5065,-1.5101,-1.5112,-1.5135,-1.5145,-1.5128,-1.5181,-1.5191,-1.5241,-1.5257,-1.5267,-1.5277,-1.5258,-1.5332,-1.5339,-1.5345,-1.5369,-1.5378,-1.5268,-1.5267,-1.5267,-1.5267,0,-1.5086,-1.5115,-1.5142,-1.5164,-1.518,-1.5214,-1.5211,-1.5229,-1.5222,-1.5223,-1.5264,-1.5274,-1.5299,-1.531,-1.5304,-1.5359,-1.535,-1.5333,-1.5304,-1.5358,-1.538,-1.5389,-1.5271,-1.527,-1.5269,-1.5269,0,0,-1.5174,-1.5191,-1.5201,-1.5211,-1.5226,-1.5248,-1.5281,-1.5305,-1.532,-1.5336,-1.5364,-1.54,-1.5384,-1.5398,-1.5392,-1.5416,-1.547,-1.5396,-1.5396,-1.541,-1.5532,-1.5545,-1.5556,-1.5461,-1.5463,-1.5464,-1.5531,0,-1.524,-1.5297,-1.529,-1.5345,-1.5371,-1.5352,-1.5381,-1.5394,-1.5396,-1.5418,-1.5421,-1.5447,-1.5424,-1.5432,-1.5454,-1.5459,-1.5494,-1.5453,-1.5487,-1.5489,-1.5485,-1.5567,-1.5582,-1.5644,-1.5539,-1.5541,-1.5542,0,-1.5324,-1.5343,-1.54,-1.5411,-1.5421,-1.5447,-1.5469,-1.549,-1.5504,-1.5504,-1.5519,-1.5509,-1.5542,-1.5512,-1.5557,-1.553,-1.5543,-1.5547,-1.5549,-1.5553,-1.5519,-1.5574,-1.5664,-1.5674,-1.5555,-1.5554,-1.5553,0,-1.5383,-1.5422,-1.5462,-1.547,-1.5484,-1.5503,-1.551,-1.5522,-1.5536,-1.5555,-1.5564,-1.5587,-1.5599,-1.5617,-1.5613,-1.5591,-1.566,-1.5629,-1.5662,-1.5662,-1.5678,-1.5677,-1.5773,-1.5685,-1.5685,-1.5685,-1.5685,0,-1.5458,-1.5494,-1.5488,-1.5513,-1.5552,-1.5544,-1.5584,-1.5588,-1.5599,-1.5624,-1.5609,-1.5633,-1.5626,-1.565,-1.5647,-1.5686,-1.5691,-1.5692,-1.5692,-1.5694,-1.5694,-1.5704,-1.57,-1.5687,-1.5687,-1.5686,-1.5686,0,-1.5531,-1.5529,-1.5571,-1.558,-1.5583,-1.5612,-1.562,-1.5643,-1.5644,-1.5675,-1.5682,-1.5683,-1.571,-1.5708,-1.5739,-1.5737,-1.5785,-1.5778,-1.578,-1.5779,-1.5812,-1.5809,-1.5917,-1.5931,-1.5834,-1.5835,-1.5836,0,-1.5579,-1.5606,-1.5618,-1.5634,-1.5642,-1.5667,-1.5681,-1.5674,-1.569,-1.5708,-1.5729,-1.5754,-1.5774,-1.5818,-1.5822,-1.5845,-1.5839,-1.5875,-1.5843,-1.5845,-1.5841,-1.584,-1.5842,-1.5882,-1.5883,-1.5884,-1.5885,0,-1.5665,-1.5663,-1.5684,-1.5706,-1.5723,-1.574,-1.5755,-1.5768,-1.5763,-1.5782,-1.5809,-1.5824,-1.5855,-1.588,-1.5902,-1.5909,-1.5897,-1.5895,-1.5904,-1.5908,-1.5908,-1.5909,-1.5799,-1.5893,-1.5892,-1.5892,-1.5891,-1.5891,-1.5728,-1.5751,-1.5763,-1.5788,-1.5798,-1.5812,-1.5834,-1.5837,-1.5859,-1.5884,-1.5878,-1.5908,-1.5921,-1.5949,-1.5958,-1.5982,-1.5969,-1.5982,-1.5985,-1.5989,-1.5993,-1.5903,-1.5986,-1.5986,-1.5986,-1.5986,-1.5985,0,-1.5814,-1.582,-1.5843,-1.5864,-1.5883,-1.5869,-1.5884,-1.5902,-1.5928,-1.5941,-1.5961,-1.5992,-1.6016,-1.6022,-1.6045,-1.6063,-1.6058,-1.607,-1.6069,-1.6071,-1.6003,-1.5993,-1.6074,-1.6074,-1.6074,-1.6074,-1.6074,-1.6074,-1.5861,-1.5899,-1.5898,-1.5941,-1.5947,-1.5977,-1.5987,-1.6,-1.601,-1.6046,-1.6066,-1.6069,-1.6079,-1.6102,-1.6124,-1.6125,-1.6135,-1.6149,-1.6148,-1.6084,-1.6076,-1.6067,-1.6058,-1.6151,-1.6151,-1.6214,-1.6214,-1.6215]},{"header":{"parameterUnit":"m.s-1","parameterCategory":1,"la1":30.2991,"la2":30.254,"lo1":-89.0895,"lo2":-89.0444,"dy":0.0017,"dx":0.0017,"nx":28,"ny":28,"refTime":"2024-11-28T09:00:00:Z","depth":0,"parameterNumber":3,"parameterNumberName":"V-component_of_WINDS"},"data":[0,0,0,0,0,0,0,0,0,0,0,0,0,0,0,0,0,0,0,0,0,0,0,0,0,0,0,0,0,0,0,0,0,0,0,0,0,0,0,0,0,0,0,0,0,0,0,0,0,0,0,0,0,0,0,0,0,0,-7.5083,-7.5084,0,-7.5189,-7.519,-7.5191,-7.5131,-7.5129,-7.5126,-7.5123,-7.5225,-7.523,-7.5235,0,0,0,0,0,0,0,0,0,0,0,0,0,-7.4825,-7.483,-7.5083,-7.5085,-7.5086,-7.5188,-7.519,-7.5191,-7.5132,-7.5128,-7.5125,-7.5122,-7.5223,-7.5229,-7.5236,0,0,0,0,0,0,0,0,0,0,0,0,0,-7.4935,-7.4832,-7.5083,-7.5069,-7.5069,-7.5188,-7.519,-7.5192,-7.5133,-7.5128,-7.5124,-7.512,-7.5221,-7.5229,-7.5237,-7.5374,0,0,-7.5261,-7.5265,0,0,0,0,0,0,0,0,-7.4928,-7.4944,-7.507,-7.507,-7.507,-7.5143,-7.5136,-7.5253,-7.5134,-7.5108,-7.5123,-7.5118,-7.52,-7.521,-7.5239,-7.5379,-7.5383,-7.5262,-7.5267,-7.5271,-7.5273,0,0,0,0,0,0,0,-7.4921,-7.4939,-7.5125,-7.5071,-7.5072,-7.5055,-7.5066,-7.5158,-7.5177,-7.511,-7.5106,-7.512,-7.52,-7.5231,-7.5241,-7.5385,-7.5262,-7.5269,-7.5274,-7.5277,-7.5643,-7.5647,0,0,0,0,0,0,-7.4915,-7.4933,-7.5121,-7.5128,-7.4987,-7.5064,-7.5076,-7.5124,-7.5176,-7.518,-7.5123,-7.5117,-7.522,-7.5232,-7.5244,-7.5409,-7.5271,-7.5278,-7.5283,-7.5638,-7.5644,-7.5649,0,0,0,0,0,0,-7.491,-7.4932,-7.5117,-7.503,-7.5052,-7.5073,-7.5127,-7.5128,-7.516,-7.5186,-7.5189,-7.5153,-7.5217,-7.5233,-7.5343,-7.5412,-7.5282,-7.5289,-7.5632,-7.564,-7.5647,-7.574,0,0,0,0,0,0,-7.4903,-7.4931,-7.4985,-7.5031,-7.5057,-7.5216,-7.5131,-7.5133,-7.5175,-7.5167,-7.5214,-7.5218,-7.5215,-7.5331,-7.5351,-7.5421,-7.5296,-7.5626,-7.5636,-7.5644,-7.5731,-7.575,-7.5766,0,0,0,0,0,-7.4894,-7.5005,-7.4988,-7.5011,-7.5125,-7.522,-7.5234,-7.523,-7.518,-7.5234,-7.5251,-7.5216,-7.5401,-7.5343,-7.5365,-7.5438,-7.5622,-7.5633,-7.5644,-7.5723,-7.5746,-7.5766,0,0,0,0,0,0,-7.4964,-7.5011,-7.4992,-7.5123,-7.5168,-7.521,-7.5277,-7.5254,-7.5313,-7.5303,-7.5292,-7.5304,-7.5418,-7.5439,-7.5373,-7.5574,-7.5504,-7.5519,-7.5557,-7.5579,-7.5596,-7.5588,-7.5302,0,0,0,0,0,-7.4995,-7.507,-7.5107,-7.5218,-7.5242,-7.5256,-7.5297,-7.529,-7.5336,-7.5354,-7.5379,-7.5423,-7.5491,-7.5536,-7.56,-7.5734,-7.5743,-7.5795,-7.5812,-7.5826,-7.584,-7.5913,-7.5937,-7.5685,-7.5685,-7.5685,0,0,-7.5059,-7.5094,-7.5142,-7.5233,-7.5267,-7.5344,-7.5272,-7.5356,-7.5413,-7.5366,-7.5472,-7.5492,-7.554,-7.5663,-7.5719,-7.5684,-7.5912,-7.584,-7.5851,-7.5858,-7.5927,-7.595,-7.5972,-7.5692,-7.5691,-7.569,0,0,-7.5215,-7.525,-7.5347,-7.5384,-7.5437,-7.5446,-7.5469,-7.5515,-7.5528,-7.5634,-7.5601,-7.5667,-7.5784,-7.582,-7.5854,-7.6026,-7.5996,-7.6046,-7.6137,-7.6208,-7.6228,-7.6246,-7.6307,-7.6329,-7.606,-7.606,-7.606,0,-7.5288,-7.5404,-7.5399,-7.5487,-7.5528,-7.5491,-7.5589,-7.5624,-7.5695,-7.5723,-7.5684,-7.5831,-7.5861,-7.5992,-7.6034,-7.6063,-7.6088,-7.6041,-7.6226,-7.6244,-7.626,-7.6318,-7.6341,-7.6066,-7.6065,-7.6065,-7.6064,0,-7.5491,-7.5572,-7.5643,-7.5716,-7.5765,-7.5857,-7.5865,-7.5914,-7.5903,-7.5915,-7.6024,-7.6059,-7.613,-7.616,-7.6149,-7.629,-7.6267,-7.6227,-7.6156,-7.629,-7.6344,-7.6367,-7.6074,-7.6072,-7.607,-7.6069,0,0,-7.5694,-7.5764,-7.579,-7.5823,-7.588,-7.5942,-7.6032,-7.6103,-7.6146,-7.6196,-7.6271,-7.6372,-7.6336,-7.6374,-7.6366,-7.6429,-7.6563,-7.6381,-7.6382,-7.6414,-7.6721,-7.6751,-7.6777,-7.6543,-7.6548,-7.6551,-7.6717,0,-7.5854,-7.6015,-7.6013,-7.616,-7.6235,-7.6202,-7.628,-7.6323,-7.6337,-7.6401,-7.6415,-7.6487,-7.6433,-7.6457,-7.6517,-7.6534,-7.6624,-7.6522,-7.6612,-7.6615,-7.6602,-7.6806,-7.6838,-7.6992,-7.6738,-7.6742,-7.6744,0,-7.6063,-7.6123,-7.6279,-7.6326,-7.6358,-7.6428,-7.6494,-7.6556,-7.6603,-7.6609,-7.6653,-7.6636,-7.6725,-7.6652,-7.6775,-7.6706,-7.6742,-7.6756,-7.6762,-7.677,-7.6688,-7.682,-7.7041,-7.7065,-7.6778,-7.6775,-7.6773,0,-7.6197,-7.6316,-7.6425,-7.6454,-7.6512,-7.6562,-7.6588,-7.6631,-7.6675,-7.6731,-7.6759,-7.6825,-7.6861,-7.6911,-7.6911,-7.6858,-7.7036,-7.6963,-7.7043,-7.7043,-7.7082,-7.7079,-7.7313,-7.7105,-7.7105,-7.7104,-7.7104,0,-7.6377,-7.6473,-7.6486,-7.6553,-7.666,-7.6657,-7.6762,-7.6783,-7.6822,-7.6891,-7.6865,-7.693,-7.6927,-7.6992,-7.6993,-7.7095,-7.7111,-7.7117,-7.7116,-7.712,-7.7119,-7.7144,-7.7133,-7.711,-7.7109,-7.7108,-7.7107,0,-7.6544,-7.6556,-7.6673,-7.6719,-7.6733,-7.681,-7.6848,-7.6911,-7.6923,-7.7011,-7.7031,-7.7049,-7.7125,-7.7131,-7.7217,-7.7218,-7.7342,-7.7329,-7.7327,-7.7325,-7.7405,-7.7397,-7.7663,-7.7697,-7.7466,-7.7468,-7.747,0,-7.6658,-7.6732,-7.6787,-7.6833,-7.6862,-7.6936,-7.6981,-7.698,-7.7027,-7.7088,-7.7143,-7.7217,-7.7276,-7.7399,-7.7418,-7.7485,-7.7473,-7.7562,-7.7483,-7.7485,-7.7475,-7.7471,-7.7478,-7.7577,-7.7579,-7.7582,-7.7583,0,-7.686,-7.6863,-7.693,-7.7,-7.7055,-7.7109,-7.7159,-7.7198,-7.7203,-7.7257,-7.7336,-7.7382,-7.7472,-7.7546,-7.7611,-7.7635,-7.761,-7.7608,-7.763,-7.7635,-7.7631,-7.7635,-7.7369,-7.7602,-7.76,-7.7599,-7.7598,-7.7597,-7.7004,-7.7069,-7.7118,-7.7194,-7.7232,-7.7281,-7.7343,-7.7363,-7.743,-7.7505,-7.7499,-7.7587,-7.7631,-7.7717,-7.7747,-7.7813,-7.7783,-7.7815,-7.7823,-7.7831,-7.784,-7.7621,-7.7825,-7.7824,-7.7824,-7.7823,-7.7823,0,-7.7205,-7.7236,-7.7306,-7.7379,-7.7438,-7.7412,-7.7466,-7.7517,-7.7595,-7.764,-7.77,-7.779,-7.7861,-7.7887,-7.7956,-7.8005,-7.7995,-7.8023,-7.802,-7.8026,-7.7863,-7.7837,-7.803,-7.803,-7.803,-7.803,-7.803,-7.803,-7.7317,-7.7425,-7.7434,-7.7561,-7.759,-7.7677,-7.7711,-7.7755,-7.7791,-7.7894,-7.7954,-7.7972,-7.8009,-7.8081,-7.8144,-7.815,-7.8177,-7.821,-7.821,-7.8058,-7.8037,-7.8017,-7.7993,-7.8215,-7.8216,-7.8368,-7.8369,-7.837]}]]